Flag for Germany Weather past 2 weeks in Schwabach, Bavaria, Germany

Now
41 °F

Partly sunny.


Feels Like: 34 °F
Forecast: 33 / 40 °F
Wind: 13 mph from West

Location: Nuernberg

Current Time: Mar 4, 2015 at 4:32:04 PM

Latest Report: Mar 4, 2015 at 3:50 PM


Visibility: N/A

Pressure: 30.27 "Hg

Humidity: 57%

Dew point: 27 °F

Location of SchwabachLocation

Historic Weather in Schwabach — Graph

°F

Schwabach temperature yesterday

Maximum temperature yesterday: 48 °F (at 2:20 PM)
Minimum temperature yesterday: 32 °F (at 6:50 AM)
Average temperature yesterday: 40 °F

Past Weeks' High & Low Weather Summary

 TemperatureHumidityPressure
High52 °F (Feb 20, 2:20 PM)100% (Feb 17, 3:20 PM)30.72 "Hg (Feb 17, 3:20 PM)
Low21 °F (Feb 20, 6:20 AM)43% (Mar 3, 4:20 PM)29.47 "Hg (Feb 21, 1:20 PM)
Average36 °F83%30.00 "Hg
* Reported Feb 17 3:20 PM — Mar 4 3:20 PM, Schwabach, Weather by CustomWeather, © 2015

Note: Actual official high and low records may vary slightly from our data, if they occured in-between our weather recording intervals... More about our weather records

Advertising

Schwabach weather history for previous 24 hours

 ConditionsComfort  
Time TempWeatherWind HumidityBarometerVisibility
3:20 PM
Wed, Mar 4
43 °FBroken clouds.15 mph53%30.24 "HgN/A
2:50 PM43 °FBroken clouds.14 mph53%30.27 "HgN/A
2:20 PM43 °FPartly sunny.16 mph46%30.27 "HgN/A
1:50 PM43 °FPartly sunny.15 mph49%30.27 "HgN/A
1:20 PM43 °FPartly sunny.15 mph53%30.27 "HgN/A
12:50 PM43 °FBroken clouds.15 mph53%30.27 "HgN/A
12:20 PM41 °FPartly sunny.13 mph61%30.27 "HgN/A
11:50 AM41 °FBroken clouds.13 mph66%30.27 "HgN/A
11:20 AM41 °FScattered clouds.15 mph61%30.27 "HgN/A
10:50 AM41 °FScattered clouds.16 mph66%30.27 "HgN/A
10:20 AM39 °FScattered clouds.14 mph75%30.24 "HgN/A
9:50 AM39 °FScattered clouds.13 mph81%30.24 "HgN/A
9:20 AM37 °FScattered clouds.8 mph81%30.24 "HgN/A
8:50 AM36 °FScattered clouds.7 mph87%30.24 "HgN/A
8:20 AM36 °FPartly sunny.8 mph87%30.24 "HgN/A
7:50 AM34 °FScattered clouds.6 mph93%30.21 "HgN/A
7:20 AM34 °FPassing clouds.6 mph93%30.21 "HgN/A
6:50 AM34 °FPassing clouds.1 mph87%30.21 "HgN/A
6:20 AM34 °FPassing clouds.5 mph93%30.18 "HgN/A
5:50 AM34 °FPassing clouds.6 mph93%30.18 "HgN/A
5:20 AM36 °FPassing clouds.8 mph87%30.15 "HgN/A
4:50 AM37 °FPassing clouds.12 mph81%30.15 "HgN/A
4:20 AM37 °FPassing clouds.12 mph87%30.15 "HgN/A
3:50 AM37 °FPassing clouds.13 mph87%30.12 "HgN/A
3:20 AM37 °FPassing clouds.16 mph87%30.12 "HgN/A
2:50 AM37 °FPassing clouds.13 mph87%30.12 "HgN/A
2:20 AM37 °FPassing clouds.13 mph87%30.09 "HgN/A
1:50 AM37 °FLight rain. Passing clouds.9 mph87%30.09 "HgN/A
1:20 AM37 °FChilly.13 mph87%30.09 "HgN/A
12:50 AM39 °FLight rain. Partly cloudy.13 mph81%30.09 "HgN/A
12:20 AM41 °FSprinkles. Partly cloudy.18 mph81%30.07 "HgN/A
11:50 PM
Tue, Mar 3
41 °FClear.2 mph66%30.07 "Hg10 mi
11:20 PM41 °FPassing clouds.3 mph66%30.07 "HgN/A
10:50 PM41 °FPassing clouds.5 mph66%30.04 "HgN/A
10:20 PM39 °FPassing clouds.5 mph70%30.07 "HgN/A
9:50 PM39 °FPassing clouds.5 mph70%30.07 "HgN/A
9:20 PM41 °FPassing clouds.5 mph66%30.07 "HgN/A
8:50 PM41 °FPassing clouds.6 mph66%30.07 "HgN/A
8:20 PM43 °FPassing clouds.7 mph66%30.07 "HgN/A
7:50 PM43 °FPassing clouds.5 mph66%30.07 "HgN/A
7:20 PM43 °FPassing clouds.7 mph61%30.07 "HgN/A
6:50 PM45 °FPassing clouds.7 mph57%30.07 "HgN/A
6:20 PM45 °FPassing clouds.5 mph57%30.07 "HgN/A
5:50 PM45 °FPassing clouds.6 mph53%30.07 "HgN/A
5:20 PM46 °FPassing clouds.8 mph50%30.07 "HgN/A
4:50 PM46 °FPassing clouds.7 mph50%30.09 "HgN/A
4:20 PM48 °FPassing clouds.10 mph43%30.09 "HgN/A
Weather by CustomWeather, © 2015

See weather overviewHow to use our weather pages